Location: Newark
(1.4333°S, 50.7333°W)
Time: 02:09:18
(UTC+00:00)

X-37B - Visible Passes

Search period start: 22 September 2020 00:00
Search period end: 02 October 2020 00:00
Orbit: 386 x 387 km, 45.0° (Epoch: 18 September)

Date Brightness Start Highest point End Pass type
(mag) Time Alt. Az. Time Alt. Az. Time Alt. Az.
23 Sep 3.1 22:48:42 10° SSW 22:49:30 16° SSW 22:49:30 16° SSW visible
24 Sep 2.4 21:51:02 10° S 21:53:14 17° SE 21:54:34 14° ESE visible
25 Sep 1.5 22:28:06 10° WSW 22:31:10 46° NW 22:32:03 35° N visible
27 Sep 3.4 22:08:28 10° W 22:10:35 16° NW 22:12:40 10° N visible
29 Sep 1.1 08:40:11 10° NNW 08:43:18 61° NE 08:46:27 10° SE visible
30 Sep 2.9 07:43:45 17° NNE 07:44:47 20° NE 07:47:14 10° E visible
01 Oct 1.2 08:21:12 23° WNW 08:22:42 38° SW 08:25:42 10° SSE visible
